FW8564 Weather Reports


time (UTC)temp
C
wind
direction
speed
KPH
gust
KPH
rain 1hr
cm
rain 24hr
cm
rain mn
cm
humidity
%
barometer
mb
20260504214017 16 338 0.0 0.0 0.00 0.03 0.03 93 1009.3
20260504213509 16 338 0.0 0.0 0.00 0.03 0.03 93 1009.4
20260504212957 16 338 0.0 0.0 0.00 0.03 0.03 93 1009.3
20260504211937 16 45 0.0 0.0 0.00 0.03 0.03 93 1009.5
20260504211427 16 45 0.0 0.0 0.00 0.03 0.03 93 1009.7
20260504210917 16 45 0.0 0.0 0.00 0.03 0.03 93 1009.5
20260504210407 16 68 0.0 0.0 0.00 0.03 0.03 93 1009.3
20260504204836 16 68 0.0 0.0 0.00 0.03 0.03 93 1009.4
20260504204327 16 68 0.0 0.0 0.00 0.03 0.03 93 1009.4
20260504203816 16 68 0.0 0.0 0.00 0.03 0.03 93 1009.4
20260504202756 16 68 0.0 0.0 0.00 0.03 0.03 93 1009.4
20260504202246 16 68 0.0 0.0 0.00 0.03 0.03 93 1009.2
20260504201735 16 68 0.0 0.0 0.00 0.03 0.03 92 1009.1
20260504201227 16 90 0.0 0.0 0.00 0.03 0.03 92 1009.1
20260504200715 16 90 0.0 0.0 0.00 0.03 0.03 92 1009.2
20260504200205 16 90 0.0 0.0 0.00 0.03 0.03 92 1009.2
20260504195655 16 158 0.0 0.0 0.00 0.03 0.03 92 1009.0
20260504195146 16 158 0.0 0.0 0.00 0.03 0.03 92 1009.0
20260504194635 16 158 0.0 0.0 0.00 0.03 0.03 92 1009.0
20260504194125 16 158 0.0 0.0 0.00 0.03 0.03 92 1008.9
20260504193616 16 158 0.0 0.0 0.00 0.03 0.03 91 1008.8
20260504193105 16 158 0.0 0.0 0.00 0.03 0.03 91 1008.7
20260504192555 16 158 0.0 0.0 0.00 0.03 0.03 91 1008.5
20260504192044 16 158 0.0 0.0 0.00 0.03 0.03 91 1008.2
20260504191535 16 158 0.0 0.0 0.00 0.03 0.03 91 1007.9
20260504191024 16 158 0.0 0.0 0.00 0.03 0.03 91 1008.0
20260504190514 17 158 0.0 0.0 0.00 0.03 0.03 91 1007.9
20260504190005 17 135 0.0 0.0 0.00 0.03 0.03 90 1008.1
20260504185455 17 135 0.0 0.0 0.00 0.03 0.03 90 1008.1
20260504184944 17 135 0.0 0.0 0.00 0.03 0.03 90 1007.9
20260504183414 17 158 0.0 0.0 0.00 0.03 0.03 89 1007.8
20260504182904 17 180 0.0 0.0 0.00 0.03 0.03 89 1007.8
20260504182354 17 180 0.0 0.0 0.00 0.03 0.03 89 1007.9
20260504181843 17 158 0.0 0.0 0.00 0.03 0.03 89 1007.8
20260504181332 18 180 0.0 0.0 0.00 0.03 0.03 89 1007.8
20260504180823 18 180 0.0 0.0 0.00 0.03 0.03 89 1007.7
20260504180313 18 225 0.0 0.0 0.00 0.03 0.03 89 1007.8
20260504175253 18 203 0.0 0.0 0.00 0.03 0.03 90 1007.9
20260504174743 18 180 0.0 0.0 0.00 0.03 0.03 90 1008.0
20260504173212 18 180 0.0 0.0 0.00 0.03 0.03 90 1007.8
20260504172703 18 135 0.0 0.0 0.00 0.03 0.03 90 1008.1
20260504171642 18 158 0.0 0.0 0.03 0.03 0.03 90 1008.0
20260504171131 18 158 0.0 0.0 0.03 0.03 0.03 90 1007.9
20260504170622 18 248 0.0 0.0 0.03 0.03 0.03 90 1008.1
20260504170112 18 203 0.0 0.0 0.03 0.03 0.03 90 1008.3
20260504160421 18 158 0.0 0.0 0.00 0.00 0.00 90 1008.7
20260504150219 19 180 0.0 0.0 0.00 0.00 0.00 81 1008.4
20260504141037 21 135 0.0 0.0 0.00 0.00 0.00 74 1008.4
20260504140528 21 180 0.0 0.0 0.00 0.00 0.00 75 1008.2
20260504130326 19 113 0.0 0.0 0.00 0.00 0.00 82 1008.8
20260504120125 20 135 0.0 0.0 0.00 0.00 0.00 79 1009.5
20260504100232 20 113 0.0 0.0 0.00 0.00 0.00 78 1009.9
20260504081910 21 135 0.0 0.0 0.00 0.00 0.00 71 1009.4
20260504081400 21 180 0.0 0.0 0.00 0.00 0.00 71 1009.6
20260504080340 21 180 0.0 0.0 0.00 0.00 0.00 72 1009.7
20260504070138 17 270 0.0 0.0 0.00 0.00 0.00 82 1009.6
20260504050245 14 180 0.0 0.0 0.00 0.00 0.00 93 1010.1
20260504045735 14 180 0.0 0.0 0.00 0.00 0.00 93 1010.0
20260504045226 14 180 0.0 0.0 0.00 0.00 0.00 93 1010.2
20260504044715 14 180 0.0 0.0 0.00 0.00 0.00 93 1010.1
20260504044206 14 180 0.0 0.0 0.00 0.00 0.00 93 1010.1
20260504043655 14 180 0.0 0.0 0.00 0.00 0.00 93 1010.1
20260504043146 14 180 0.0 0.0 0.00 0.00 0.00 93 1010.0
20260504042636 15 180 0.0 0.0 0.00 0.00 0.00 93 1010.1
20260504042125 15 180 0.0 0.0 0.00 0.00 0.00 93 1010.4
20260504041615 15 180 0.0 0.0 0.00 0.00 0.00 93 1010.4
20260504041105 15 180 0.0 0.0 0.00 0.00 0.00 92 1010.2
20260504040555 15 180 0.0 0.0 0.00 0.00 0.00 93 1010.5
20260504035534 15 180 0.0 0.0 0.00 0.00 0.00 92 1010.5
20260504035024 15 180 0.0 0.0 0.00 0.00 0.00 92 1010.6
20260504034514 15 180 0.0 0.0 0.00 0.00 0.00 93 1010.6
20260504034004 15 180 0.0 0.0 0.00 0.00 0.00 93 1010.6
20260504033453 15 180 0.0 0.0 0.00 0.00 0.00 93 1010.6
20260504032943 15 180 0.0 0.0 0.00 0.00 0.00 93 1010.5
20260504032434 15 180 0.0 0.0 0.00 0.00 0.00 93 1010.8
20260504031413 15 135 0.0 0.0 0.00 0.00 0.00 93 1010.7
20260504030904 15 135 0.0 0.0 0.00 0.00 0.00 93 1010.8
20260504030353 15 135 0.0 0.0 0.00 0.00 0.00 93 1010.7
20260504025333 15 135 0.0 0.0 0.00 0.00 0.00 93 1010.7
20260504024822 15 135 0.0 0.0 0.00 0.00 0.00 93 1010.8
20260504024313 15 135 0.0 0.0 0.00 0.00 0.00 93 1010.9
20260504023803 15 135 0.0 0.0 0.00 0.00 0.00 92 1011.0
20260504022743 15 135 0.0 0.0 0.00 0.00 0.00 92 1010.7
20260504022232 15 135 0.0 0.0 0.00 0.00 0.00 92 1010.9
20260504021722 15 135 0.0 0.0 0.00 0.00 0.00 92 1011.0
20260504020702 15 135 0.0 0.0 0.00 0.00 0.00 92 1011.0
20260504020151 15 135 0.0 0.0 0.00 0.00 0.00 92 1011.2
20260504014112 15 135 0.0 0.0 0.00 0.00 0.00 92 1011.2
20260504013601 15 135 0.0 0.0 0.00 0.00 0.00 92 1011.2
20260504013051 15 135 0.0 0.0 0.00 0.00 0.00 92 1011.2
20260504012541 15 135 0.0 0.0 0.00 0.00 0.00 92 1011.3
20260504011010 15 135 0.0 0.0 0.00 0.00 0.00 92 1011.4
20260504010501 15 135 0.0 0.0 0.00 0.00 0.00 92 1011.3
20260504005951 15 135 0.0 0.0 0.00 0.00 0.00 92 1011.4
20260504005440 15 135 0.0 0.0 0.00 0.00 0.00 92 1011.4
20260504004930 15 135 0.0 0.0 0.00 0.00 0.00 92 1011.5
20260504004420 15 113 0.0 0.0 0.00 0.00 0.00 92 1011.4
20260504003910 15 113 0.0 0.0 0.00 0.00 0.00 92 1011.5
20260504003400 15 113 0.0 0.0 0.00 0.00 0.00 92 1011.7
20260504002850 15 113 0.0 0.0 0.00 0.00 0.00 92 1011.5
20260504002341 15 135 0.0 0.0 0.00 0.00 0.00 92 1011.5
20260504001829 15 135 0.0 0.0 0.00 0.00 0.00 91 1011.4
20260504001313 15 0.0 0.0 0.00 0.00 0.00 91
20260504000140 15 135 0.0 0.0 0.00 0.00 0.00 90 1011.7
20260503235504 15 135 0.0 0.0 0.00 0.00 0.00 91 1011.8
20260503234954 15 135 0.0 0.0 0.00 0.00 0.00 90 1011.8
20260503234444 15 135 0.0 0.0 0.00 0.00 0.00 90 1012.0
20260503233934 15 135 0.0 0.0 0.00 0.00 0.00 90 1011.9
20260503233424 15 135 0.0 0.0 0.00 0.00 0.00 90 1012.2
20260503232914 15 135 0.0 0.0 0.00 0.00 0.00 90 1012.0
20260503232404 15 158 0.0 0.0 0.00 0.00 0.00 90 1012.0
20260503231854 15 158 0.0 0.0 0.00 0.00 0.00 90 1012.0
20260503231343 15 158 0.0 0.0 0.00 0.00 0.00 89 1012.1
20260503230833 16 158 0.0 0.0 0.00 0.00 0.00 89 1011.9
20260503230323 16 158 0.0 0.0 0.00 0.00 0.00 89 1012.5
20260503225813 16 158 0.0 0.0 0.00 0.00 0.00 89 1012.4
20260503225304 16 158 0.0 0.0 0.00 0.00 0.00 89 1012.6
20260503224753 16 158 0.0 0.0 0.00 0.00 0.00 89 1012.5
20260503224243 16 158 0.0 0.0 0.00 0.00 0.00 89 1012.5
20260503222713 16 158 0.0 0.0 0.00 0.00 0.00 88 1012.7
20260503221652 16 158 0.0 0.0 0.00 0.00 0.00 89 1012.7
20260503221142 16 158 0.0 0.0 0.00 0.00 0.00 89 1012.7
20260503220632 16 158 0.0 0.0 0.00 0.00 0.00 89 1012.8
20260503215611 16 158 0.0 0.0 0.00 0.00 0.00 88 1012.9
20260503215101 16 135 0.0 0.0 0.00 0.00 0.00 88 1012.9
20260503214552 16 158 0.0 0.0 0.00 0.00 0.00 88 1012.8